EN

Hourly Weather Almozara

Today, 19 January, Tuesday

Time Temperature Precipitation Wind Pressure Humidity
00:00 +4°C° 0 mm 3 mps 737 mmHg 95%
01:00 +4°C° 0 mm 3 mps 736 mmHg 94%
02:00 +4°C° 0 mm 4 mps 736 mmHg 94%
03:00 +4°C° 0 mm 4 mps 735 mmHg 93%
04:00 +3°C° 0 mm 5 mps 735 mmHg 92%
05:00 +5°C° 0 mm 5 mps 735 mmHg 91%
06:00 +5°C° 0 mm 5 mps 734 mmHg 89%
07:00 +4°C° 0 mm 6 mps 734 mmHg 88%
08:00 +5°C° 0 mm 6 mps 734 mmHg 86%
09:00 +7°C° 0 mm 6 mps 733 mmHg 82%
10:00 +6°C° 0 mm 7 mps 733 mmHg 78%
11:00 +8°C° 0 mm 7 mps 732 mmHg 73%
12:00 +8°C° 0.2 mm 7 mps 731 mmHg 74%
13:00 +7°C° 0.2 mm 8 mps 730 mmHg 76%
14:00 +7°C° 0.2 mm 8 mps 729 mmHg 77%
15:00 +7°C° 0.5 mm 8 mps 729 mmHg 79%
16:00 +7°C° 0.5 mm 9 mps 729 mmHg 81%
17:00 +7°C° 0.5 mm 9 mps 728 mmHg 83%
18:00 +7°C° 1.2 mm 9 mps 727 mmHg 85%
19:00 +7°C° 1.2 mm 9 mps 726 mmHg 87%
20:00 +6°C° 1.2 mm 9 mps 725 mmHg 88%
21:00 +7°C° 0.7 mm 9 mps 725 mmHg 88%
22:00 +7°C° 0.7 mm 9 mps 724 mmHg 88%
23:00 +7°C° 0.7 mm 9 mps 723 mmHg 88%

Tomorrow, 20 January, Wednesday

Time Temperature Precipitation Wind Pressure Humidity
00:00 +7°C° 1.3 mm 9 mps 722 mmHg 89%
01:00 +7°C° 1.3 mm 9 mps 721 mmHg 90%
02:00 +6°C° 1.3 mm 9 mps 720 mmHg 91%
03:00 +7°C° 1.4 mm 8 mps 720 mmHg 92%
04:00 +7°C° 1.4 mm 8 mps 719 mmHg 93%
05:00 +8°C° 1.4 mm 7 mps 719 mmHg 94%
06:00 +9°C° 2.3 mm 8 mps 719 mmHg 95%
07:00 +9°C° 2.3 mm 8 mps 718 mmHg 95%
08:00 +9°C° 2.3 mm 8 mps 718 mmHg 96%
09:00 +9°C° 1.1 mm 8 mps 719 mmHg 95%
10:00 +9°C° 1.1 mm 8 mps 719 mmHg 95%
11:00 +10°C° 1.1 mm 8 mps 719 mmHg 94%
12:00 +9°C° 0.7 mm 8 mps 719 mmHg 94%
13:00 +9°C° 0.7 mm 7 mps 719 mmHg 94%
14:00 +9°C° 0.7 mm 7 mps 719 mmHg 94%
15:00 +9°C° 0.4 mm 7 mps 720 mmHg 94%
16:00 +9°C° 0.4 mm 6 mps 720 mmHg 94%
17:00 +9°C° 0.4 mm 6 mps 721 mmHg 95%
18:00 +9°C° 0.5 mm 6 mps 722 mmHg 95%
19:00 +9°C° 0.5 mm 5 mps 722 mmHg 95%
20:00 +9°C° 0.5 mm 5 mps 723 mmHg 95%
21:00 +9°C° 0.2 mm 5 mps 724 mmHg 96%
22:00 +8°C° 0.2 mm 4 mps 724 mmHg 96%
23:00 +8°C° 0.2 mm 4 mps 725 mmHg 96%

Day after tomorrow, 21 January, Thursday

Time Temperature Precipitation Wind Pressure Humidity
00:00 +8°C° 0.1 mm 4 mps 725 mmHg 96%
01:00 +8°C° 0.1 mm 5 mps 725 mmHg 95%
02:00 +8°C° 0.1 mm 5 mps 725 mmHg 95%
03:00 +8°C° 0.3 mm 6 mps 725 mmHg 94%
04:00 +9°C° 0.3 mm 7 mps 724 mmHg 94%
05:00 +9°C° 0.3 mm 8 mps 723 mmHg 93%
06:00 +10°C° 2.4 mm 9 mps 723 mmHg 94%
07:00 +9°C° 2.4 mm 10 mps 722 mmHg 94%
08:00 +9°C° 2.4 mm 11 mps 722 mmHg 95%
09:00 +9°C° 0.6 mm 10 mps 722 mmHg 92%
10:00 +10°C° 0.6 mm 9 mps 723 mmHg 89%
11:00 +10°C° 0.6 mm 8 mps 723 mmHg 87%
12:00 +10°C° 0.1 mm 9 mps 723 mmHg 84%
13:00 +10°C° 0.1 mm 9 mps 723 mmHg 82%
14:00 +9°C° 0.1 mm 10 mps 722 mmHg 80%
15:00 +8°C° 0.1 mm 9 mps 723 mmHg 80%
16:00 +9°C° 0.1 mm 8 mps 724 mmHg 80%
17:00 +7°C° 0.1 mm 8 mps 724 mmHg 80%
18:00 +8°C° 0.2 mm 7 mps 725 mmHg 83%
19:00 +8°C° 0.2 mm 6 mps 725 mmHg 86%
20:00 +8°C° 0.2 mm 5 mps 725 mmHg 89%
21:00 +8°C° 1.8 mm 6 mps 724 mmHg 91%
22:00 +8°C° 1.8 mm 6 mps 723 mmHg 94%
23:00 +8°C° 1.8 mm 7 mps 722 mmHg 96%

22 January, Friday

Time Temperature Precipitation Wind Pressure Humidity
00:00 +6°C° 2.2 mm 8 mps 721 mmHg 94%
01:00 +6°C° 2.2 mm 9 mps 721 mmHg 93%
02:00 +6°C° 2.2 mm 9 mps 720 mmHg 91%
03:00 +6°C° 0.6 mm 10 mps 720 mmHg 91%
04:00 +4°C° 0.6 mm 11 mps 721 mmHg 90%
05:00 +4°C° 0.6 mm 11 mps 722 mmHg 90%
06:00 +5°C° 0.4 mm 10 mps 723 mmHg 90%
07:00 +4°C° 0.4 mm 8 mps 725 mmHg 90%
08:00 +4°C° 0.4 mm 6 mps 727 mmHg 90%
09:00 +5°C° 0.1 mm 6 mps 728 mmHg 85%
10:00 +7°C° 0.1 mm 5 mps 729 mmHg 80%
11:00 +8°C° 0.1 mm 5 mps 730 mmHg 74%
12:00 +8°C° 0.2 mm 5 mps 730 mmHg 74%
13:00 +8°C° 0.2 mm 5 mps 730 mmHg 74%
14:00 +8°C° 0.2 mm 5 mps 730 mmHg 74%
15:00 +7°C° 0.3 mm 5 mps 730 mmHg 80%
16:00 +5°C° 0.3 mm 6 mps 730 mmHg 85%
17:00 +4°C° 0.3 mm 6 mps 730 mmHg 91%
18:00 +4°C° 0.2 mm 6 mps 731 mmHg 91%
19:00 +4°C° 0.2 mm 6 mps 731 mmHg 91%
20:00 +4°C° 0.2 mm 6 mps 731 mmHg 91%
21:00 +5°C° 0.2 mm 6 mps 731 mmHg 90%
22:00 +5°C° 0.2 mm 6 mps 731 mmHg 89%
23:00 +5°C° 0.2 mm 7 mps 731 mmHg 88%

23 January, Saturday

Time Temperature Precipitation Wind Pressure Humidity
00:00 +5°C° 0.3 mm 7 mps 731 mmHg 89%
01:00 +6°C° 0.3 mm 7 mps 731 mmHg 91%
02:00 +7°C° 0.3 mm 6 mps 731 mmHg 92%
03:00 +5°C° 0.4 mm 6 mps 730 mmHg 93%
04:00 +5°C° 0.4 mm 6 mps 730 mmHg 93%
05:00 +5°C° 0.4 mm 6 mps 730 mmHg 94%
06:00 +5°C° 1.7 mm 6 mps 730 mmHg 95%
07:00 +7°C° 1.7 mm 6 mps 729 mmHg 96%
08:00 +7°C° 1.7 mm 6 mps 729 mmHg 97%
09:00 +6°C° 4 mm 7 mps 728 mmHg 97%
10:00 +7°C° 4 mm 8 mps 727 mmHg 97%
11:00 +7°C° 4 mm 9 mps 726 mmHg 97%
12:00 +9°C° 1.9 mm 8 mps 726 mmHg 96%
13:00 +10°C° 1.9 mm 8 mps 725 mmHg 95%
14:00 +11°C° 1.9 mm 8 mps 724 mmHg 94%
15:00 +10°C° 0.2 mm 7 mps 725 mmHg 94%
16:00 +9°C° 0.2 mm 6 mps 725 mmHg 94%
17:00 +8°C° 0.2 mm 6 mps 726 mmHg 93%
18:00 +8°C° 0.3 mm 6 mps 726 mmHg 93%
19:00 +8°C° 0.3 mm 6 mps 727 mmHg 93%
20:00 +8°C° 0.3 mm 6 mps 727 mmHg 93%
21:00 +8°C° 0.3 mm 5 mps 728 mmHg 94%
22:00 +8°C° 0.3 mm 5 mps 729 mmHg 95%
23:00 +8°C° 0.3 mm 5 mps 729 mmHg 96%

24 January, Sunday

Time Temperature Precipitation Wind Pressure Humidity
00:00 +7°C° 0.2 mm 4 mps 730 mmHg 96%
01:00 +8°C° 0.2 mm 3 mps 730 mmHg 96%
02:00 +7°C° 0.2 mm 3 mps 731 mmHg 97%
03:00 +7°C° 0 mm 2 mps 731 mmHg 96%
04:00 +6°C° 0 mm 2 mps 731 mmHg 96%
05:00 +6°C° 0 mm 2 mps 732 mmHg 96%
06:00 +6°C° 0 mm 2 mps 732 mmHg 95%
07:00 +7°C° 0 mm 1 mps 733 mmHg 94%
08:00 +7°C° 0 mm 1 mps 733 mmHg 94%
09:00 +7°C° 0 mm 2 mps 733 mmHg 91%
10:00 +8°C° 0 mm 2 mps 734 mmHg 88%
11:00 +9°C° 0 mm 2 mps 734 mmHg 85%
12:00 +9°C° 0.1 mm 2 mps 734 mmHg 85%
13:00 +9°C° 0.1 mm 2 mps 733 mmHg 85%
14:00 +9°C° 0.1 mm 2 mps 733 mmHg 85%
15:00 +8°C° 0.2 mm 2 mps 733 mmHg 88%
16:00 +8°C° 0.2 mm 2 mps 733 mmHg 92%
17:00 +7°C° 0.2 mm 2 mps 733 mmHg 95%
18:00 +7°C° 0.3 mm 2 mps 732 mmHg 96%
19:00 +7°C° 0.3 mm 2 mps 732 mmHg 96%
20:00 +7°C° 0.3 mm 2 mps 732 mmHg 97%
21:00 +7°C° 0.8 mm 2 mps 732 mmHg 97%
22:00 +7°C° 0.8 mm 2 mps 732 mmHg 97%
23:00 +7°C° 0.8 mm 2 mps 731 mmHg 97%
Show more